Flag for U.S.A. Weather past 2 weeks in Orange, California, U.S.A.

Now
71 °F

Clear.


Feels Like: 74 °F
Forecast: 61 / 75 °F
Wind: No wind

Location: John Wayne Airport-Orange County Airport

Current Time: Oct 25, 2014 at 9:31:55 PM

Latest Report: Oct 25, 2014 at 8:53 PM


Visibility: 10 mi

Pressure: 30.01 "Hg

Humidity: 71%

Dew point: 61 °F

Location of OrangeLocation

Historic Weather in Orange — Graph

°F

Orange temperature yesterday

Maximum temperature yesterday: 86 °F (at 12:53 PM)
Minimum temperature yesterday: 63 °F (at 4:53 AM)
Average temperature yesterday: 73 °F

Past Weeks' High & Low Weather Summary

 TemperatureHumidityPressure
High86 °F (Oct 24, 12:53 PM)83% (Oct 22, 5:58 AM)30.04 "Hg (Oct 22, 5:58 AM)
Low63 °F (Oct 22, 5:58 AM)23% (Oct 24, 12:53 PM)29.83 "Hg (Oct 19, 4:53 PM)
Average72 °F65%29.93 "Hg
* Reported Oct 10 7:53 PM — Oct 25 7:53 PM, Orange, Weather by CustomWeather, © 2014

Note: Actual official high and low records may vary slightly from our data, if they occured in-between our weather recording intervals... More about our weather records

Advertising

Orange weather history for previous 24 hours

 ConditionsComfort  
Time TempWeatherWind HumidityBarometerVisibility
7:53 PM
Oct 25
72 °FClear.5 mph66%30.00 "Hg10 mi
6:53 PM72 °FSunny.No wind64%29.98 "Hg10 mi
5:53 PM74 °FPassing clouds.5 mph62%29.98 "Hg10 mi
4:53 PM76 °FScattered clouds.5 mph56%29.98 "Hg10 mi
3:53 PM77 °FScattered clouds.7 mph52%30.00 "Hg10 mi
2:53 PM78 °FScattered clouds.9 mph46%30.01 "Hg10 mi
1:53 PM80 °FScattered clouds.8 mph41%30.02 "Hg10 mi
12:53 PM78 °FScattered clouds.8 mph48%30.03 "Hg10 mi
11:53 AM80 °FPassing clouds.5 mph41%30.03 "Hg10 mi
10:53 AM76 °FScattered clouds.5 mph56%30.04 "Hg10 mi
9:53 AM73 °FScattered clouds.No wind66%30.04 "Hg8 mi
8:53 AM70 °FScattered clouds.No wind76%30.04 "Hg8 mi
7:53 AM68 °FPassing clouds.No wind78%30.02 "Hg8 mi
6:53 AM67 °FPassing clouds.No wind79%30.00 "Hg9 mi
5:53 AM67 °FOvercast.No wind79%29.98 "Hg10 mi
4:53 AM67 °FOvercast.No wind81%29.97 "Hg10 mi
3:53 AM66 °FPassing clouds.No wind78%29.97 "Hg10 mi
2:53 AM67 °FClear.3 mph79%29.99 "Hg10 mi
1:53 AM68 °FClear.No wind82%30.01 "Hg10 mi
12:53 AM67 °FClear.5 mph81%30.01 "Hg10 mi
11:53 PM
Oct 24
69 °FClear.No wind79%29.99 "Hg10 mi
10:53 PM71 °FClear.No wind78%29.99 "Hg10 mi
9:53 PM71 °FClear.3 mph78%29.98 "Hg10 mi
Weather by CustomWeather, © 2014

See weather overviewHow to use our weather pages